GLD1028 SBUA-SBTF

Flight info

Callsign GLD1028
Flight time N/A
Altitude 17000
Route DEXE1A ERVAM DCT 0121S06608W 0204S06539W DCT 0251S06506W DCT TFE DCT
Aircraft PC12/L-SDFGIRY/S

Departure

Time N/A
Airport São Gabriel da Cachoeira Airport (SBUA)

Arrival

Time 2026-04-24 19:03
Airport Tefé Airport (SBTF)
Time Latitude Longitude Altitude Speed Heading
2026-04-24 17:07 -0.15410 -66.99299 260 ft 0 kts 162°
2026-04-24 18:54 -3.19211 -64.89605 3872 ft 134 kts 135°
2026-04-24 18:55 -3.20920 -64.88053 3543 ft 149 kts 136°
2026-04-24 18:55 -3.21672 -64.87380 3380 ft 141 kts 136°
2026-04-24 18:55 -3.22382 -64.86744 3209 ft 134 kts 136°
2026-04-24 18:56 -3.23064 -64.86130 3036 ft 130 kts 135°
2026-04-24 18:56 -3.23730 -64.85530 2864 ft 126 kts 135°
2026-04-24 18:56 -3.24154 -64.85149 2750 ft 123 kts 136°
2026-04-24 18:56 -3.24791 -64.84574 2582 ft 123 kts 135°
2026-04-24 18:57 -3.25619 -64.83828 2354 ft 119 kts 135°
2026-04-24 18:57 -3.26225 -64.83283 2213 ft 117 kts 135°
2026-04-24 18:57 -3.26831 -64.82734 2205 ft 118 kts 136°
2026-04-24 18:57 -3.27443 -64.82183 2205 ft 118 kts 136°
2026-04-24 18:58 -3.28058 -64.81629 2205 ft 119 kts 135°
2026-04-24 18:58 -3.28672 -64.81077 2212 ft 119 kts 136°
2026-04-24 18:58 -3.29079 -64.80711 2205 ft 119 kts 137°
2026-04-24 18:58 -3.29915 -64.79958 2114 ft 124 kts 137°
2026-04-24 18:59 -3.30330 -64.79586 2020 ft 116 kts 136°
2026-04-24 18:59 -3.31089 -64.78904 1827 ft 107 kts 136°
2026-04-24 18:59 -3.31460 -64.78569 1739 ft 105 kts 136°
2026-04-24 18:59 -3.31990 -64.78091 1608 ft 103 kts 137°
2026-04-24 19:00 -3.32692 -64.77459 1428 ft 101 kts 136°
2026-04-24 19:00 -3.33041 -64.77144 1343 ft 102 kts 136°
2026-04-24 19:00 -3.33568 -64.76669 1210 ft 101 kts 136°
2026-04-24 19:00 -3.34086 -64.76203 1083 ft 100 kts 136°
2026-04-24 19:01 -3.34604 -64.75735 972 ft 101 kts 136°
2026-04-24 19:01 -3.35121 -64.75270 836 ft 98 kts 136°
2026-04-24 19:01 -3.35619 -64.74823 722 ft 95 kts 137°
2026-04-24 19:01 -3.36124 -64.74367 602 ft 101 kts 139°
2026-04-24 19:02 -3.36620 -64.73905 525 ft 95 kts 137°
2026-04-24 19:02 -3.37109 -64.73475 351 ft 90 kts 138°
2026-04-24 19:02 -3.37545 -64.73085 212 ft 77 kts 134°
2026-04-24 19:02 -3.37888 -64.72768 175 ft 54 kts 143°
2026-04-24 19:03 -3.37995 -64.72676 177 ft 13 kts 146°
2026-04-24 19:03 -3.38086 -64.72600 176 ft 20 kts 140°
2026-04-24 19:03 -3.38141 -64.72511 174 ft 13 kts 65°
2026-04-24 19:03 -3.38109 -64.72472 174 ft 0 kts 45°
2026-04-24 19:04 -3.38094 -64.72456 175 ft 9 kts 46°
2026-04-24 19:04 -3.38027 -64.72402 176 ft 13 kts
2026-04-24 19:04 -3.37981 -64.72387 177 ft 0 kts 22°
2026-04-24 19:34 -3.37982 -64.72387 177 ft 0 kts 22°
2026-04-24 19:56 -3.37982 -64.72388 177 ft 0 kts 22°